Location: Burbank
(38.7788°N, 114.0429°W)
Time: 02:33:57
(UTC+00:00)

Tiros 1 despin weight - Pass Details

Date: 18 May 2026
Orbit: 554 x 591 km, 48.2° (Epoch: 6 June)

Event Time Altitude Azimuth Distance (km) Brightness Sun altitude
Rises 15:26:05 0° 302° (WNW) 2,743 ? 34.0°
Reaches altitude 10° 15:28:36 10° 314° (NW) 1,842 ? 34.5°
Maximum altitude 15:32:15 28° 15° (NNE) 1,051 ? 35.2°
Drops below altitude 10° 15:35:54 10° 76° (ENE) 1,831 ? 35.9°
Sets 15:38:23 0° 88° (E) 2,724 ? 36.4°
